Lid_Strength_Index
3 3 3 3 2 2 3 2 2 2 2 2 2 1 1 1 2 3 6 5 3 -2 0 4 6 6 5 6 5 6 11 11 11 10 9 9 9 4 4 5 4 4 5 4 3
3 3 3 3 3 3 3 3 3 2 2 2 2 2 1 1 4 6 2 -3 -3 -3 5 7 8 7 9 7 6 8 12 11 8 8 9 10 9 5 5 5 5 5 4 3 3
3 3 3 3 3 3 3 3 3 2 2 2 2 2 2 2 6 6 -2 -3 -3 -2 5 6 7 7 10 9 8 8 9 8 7 7 7 9 9 7 7 7 5 5 5 3 3
4 4 3 3 3 3 3 3 3 2 2 2 2 2 2 4 10 5 -3 -3 -2 3 6 7 8 10 10 10 8 9 7 6 6 5 6 7 9 9 7 6 4 3 3 3 4
4 4 4 4 4 3 3 3 3 3 3 3 3 3 4 7 7 1 -3 -2 3 5 7 8 9 9 10 9 8 9 8 6 6 6 6 6 7 9 8 6 6 5 3 4 4
4 4 4 4 4 3 3 3 3 3 3 3 3 3 6 10 4 2 2 4 5 6 6 7 7 6 8 8 9 7 7 7 7 7 7 7 7 9 8 6 7 7 6 5 4
4 4 4 4 4 4 3 3 3 3 2 2 3 3 6 8 4 3 3 4 4 4 6 6 5 7 7 9 7 7 9 8 7 8 8 7 8 8 7 7 7 8 8 5 4
4 4 4 4 4 4 4 4 3 2 2 2 2 5 8 3 3 4 4 5 4 4 4 4 4 6 8 7 7 9 10 12 9 7 6 8 11 7 6 7 7 8 8 8 5
5 5 5 5 4 4 4 4 4 2 3 2 5 6 7 2 4 4 5 5 5 5 4 2 4 7 7 10 12 11 13 12 10 7 7 8 10 7 6 6 7 6 7 8 7
5 5 5 5 5 5 5 4 3 3 3 3 4 7 5 5 4 4 4 4 5 5 5 6 9 10 11 12 14 13 12 11 10 8 8 9 9 7 6 6 6 7 7 6 5
4 5 5 5 5 5 6 7 7 7 7 6 6 6 5 3 3 5 4 5 6 7 10 9 12 14 11 10 9 9 10 11 9 8 9 10 10 9 7 7 8 7 7 7 6
4 4 4 5 5 5 7 9 8 9 11 7 6 6 4 4 7 5 4 7 8 10 9 10 12 9 8 8 9 9 10 11 9 8 9 10 10 8 8 8 7 7 7 7 6
4 5 5 5 5 5 6 6 6 7 11 9 8 8 7 7 7 7 5 7 8 10 9 11 9 6 7 9 9 10 11 11 10 9 9 10 11 10 8 8 7 7 7 6 6
5 5 5 5 5 5 6 5 6 5 13 10 8 8 7 7 8 4 4 6 8 10 9 9 7 7 8 9 9 12 8 8 9 11 14 10 14 12 10 9 8 8 7 7 7
5 5 5 6 8 7 5 6 6 6 17 8 8 5 6 8 7 6 4 6 8 8 8 10 8 9 9 8 8 10 8 9 9 11 13 12 15 13 10 10 9 7 7 6 5
5 6 6 6 7 5 4 6 7 13 16 9 8 8 9 7 7 6 6 5 5 8 8 8 6 7 8 7 7 7 9 10 11 13 15 13 13 12 12 10 9 7 7 5 5
6 6 7 6 8 5 6 8 14 16 8 9 9 8 9 9 8 7 8 9 11 12 12 9 8 7 6 9 8 9 13 15 17 17 16 12 12 12 9 8 7 7 7 6 5
7 7 5 4 5 5 7 11 17 11 10 9 9 9 11 9 9 8 9 10 8 10 12 12 13 9 8 10 12 10 12 15 19 18 15 11 13 12 7 7 6 6 6 6 6
7 6 5 3 3 5 9 14 13 11 11 11 10 11 11 10 10 10 10 9 9 10 12 13 12 8 9 10 10 11 13 9 14 13 16 14 12 9 8 8 8 7 8 9 7
7 6 4 3 3 5 10 12 10 10 10 10 13 11 13 12 12 12 11 9 10 10 10 12 16 10 8 8 10 12 10 14 14 19 20 15 14 15 12 11 9 9 8 8 7
6 6 3 2 3 8 12 10 10 9 10 12 13 13 12 13 12 12 11 10 9 10 10 12 13 14 11 11 12 12 14 14 13 13 19 20 16 11 12 10 9 8 8 7 8
7 8 3 3 8 8 10 9 9 10 9 10 10 11 12 12 12 12 12 10 9 10 12 11 14 17 14 11 9 10 11 13 16 16 14 16 17 10 9 9 8 8 8 8 8
9 6 3 3 11 11 9 9 8 9 10 11 11 10 10 12 14 12 11 9 9 10 11 12 15 19 17 14 10 11 10 11 12 13 16 18 15 9 9 9 8 8 7 7 7
8 9 6 5 6 9 10 10 10 8 10 9 11 10 11 12 11 12 11 8 9 9 8 9 13 14 18 15 12 12 11 10 12 16 15 15 14 11 10 10 9 7 6 7 6
7 8 7 10 9 8 9 9 11 11 9 9 11 11 12 14 12 12 8 8 7 7 8 10 14 11 10 10 10 10 11 11 12 12 14 13 13 12 10 9 8 7 7 6 6
8 9 7 8 7 8 9 10 10 11 11 12 12 11 10 12 11 11 9 9 10 7 10 9 13 12 13 10 9 11 10 10 10 11 11 11 12 9 9 7 7 7 6 7 7
5 6 7 7 8 9 10 10 11 10 10 9 10 11 11 9 7 7 7 8 8 10 10 11 12 14 16 11 11 14 11 10 10 9 10 12 10 9 9 8 8 7 6 6 7